Location: Cicognara
(44.9500°N, 10.4667°E)
Time: 15:28:07
(UTC+00:00)

Meteor 1-21 - Pass Details

Date: 20 June 2021
Orbit: 846 x 885 km, 81.2° (Epoch: 03 August)

Event Time Altitude Azimuth Distance (km) Brightness Sun altitude
Rises 19:36:20 0° 191° (SSW) 3,423 7.1 -4.8°
Reaches altitude 10° 19:38:45 10° 193° (SSW) 2,485 6.4 -5.1°
Maximum altitude 19:44:24 81° 281° (W) 868 4.4 -5.8°
Drops below altitude 10° 19:50:03 10° 9° (N) 2,484 7.1 -6.6°
Sets 19:52:28 0° 10° (N) 3,421 7.9 -6.9°
